2001 WHS-NEWPORT/IRVINE ROTARY CROSS COUNTRY INVITATIONAL RESULTS
September 15, 2001

 
 
 
Individual Race Results - Race 22 4:50 Division III Varsity Men
Place Bib# Name Yr Team Time Place Bib# Name Yr Team Time
1 5486 Poe, Mike 11 Etiwanda 15:20
2 4088 Guerra, Francisco 11 Foothill 15:50
3 3690 Mulgrew, Jad 11 Cathedral City 15:53
4 3692 Perezchica, Andy 11 Cathedral City 16:06
5 4550 Guerrero, Angel 11 Rancho Verde 16:09
6 4558 Rodriguez, Jose 11 Rancho Verde 16:14
7 4476 Corona, Malcolm 11 Perris 16:21
8 4132 Wright, Ej 11 Foothill 16:25
9 3761 Gozalez, Carlo 11 Chino 16:33
10 4432 David, Cifuentes 11 Palm Springs 16:35
11 3990 Medina, Bren 11 East Valley (Redlands) 16:36
12 4502 Vazquez, Sergio 11 Perris 16:39
13 4056 O'Connor, Shane 11 Escondido (S.D.) 16:41
14 4007 Tharp, Matt 11 East Valley (Redlands) 16:42
15 4119 Rodriguez, Alex 11 Foothill 16:45
16 5459 Cavallo, Mike 11 Etiwanda 16:47
17 4497 Romero, Miguel 11 Perris 16:49
18 3769 Ramirez, Ruben 10 Chino 16:50
19 4194 Ruvolo, Patrick 11 La Habra 17:07
20 3987 Lopez, Eduardo 11 East Valley (Redlands) 17:11
21 5465 Fox, Nick 11 Etiwanda 17:12
22 5105 Villagomez, Joel 11 Westlake 17:13
23 4219 Gunderman, Evan 11 Laguna Hills 17:16
24 3979 Johnson, Darin 11 East Valley (Redlands) 17:17
25 4015 Zingler, Jeff 11 East Valley (Redlands) 17:18
26 3960 Dellhime, Ethan 11 East Valley (Redlands) 17:24
27 3742 Lucero, Orlando 11 Century 17:31
28 3779 Welcher, Anthony 11 Chino 17:39
29 4300 Padilla, Edgar 11 Miller, A.B. (Fontana) 17:42
30 4602 Cruz, Gustavo 11 San Bernardino 17:42
31 5483 Nelson, Eric 11 Etiwanda 17:43
32 3976 Holt, Brandon 11 East Valley (Redlands) 17:43
33 3774 Spence, James 11 Chino 17:52
34 3964 Esparza, Mike 11 East Valley (Redlands) 17:53
35 3803 Elsberry, Chris 11 Claremont 17:56
36 4632 Weatherall, Vincent 11 San Bernardino 17:56
37 4215 Gendron, Brian 11 Laguna Hills 17:58
38 5064 Maron, Brett 11 Westlake 17:59
39 3791 Chakravarti, Taku 11 Claremont 18:11
40 3675 Rodriguez, Manny 11 California 18:14
41 4168 Valenzuela, Jason 11 Huntington Beach 18:21
42 3972 Grau, Alex 11 East Valley (Redlands) 18:28
43 3612 Garcia, Anthony 11 Cajon 18:30
44 5025 Canfield, Stephen 11 Westlake 18:30
45 4511 Geant, Ian 11 Ramona (Riverside) 18:30
46 4556 Miramontes, German 11 Rancho Verde 18:31
47 4472 Bermudez, Moises 11 Perris 18:31
48 5080 Radin, Andrew 11 Westlake 18:34
49 4624 Rodriguez, Miguel 11 San Bernardino 18:34
50 4812 Bjelagac, Stanko 11 South Torrance 18:38
51 3973 Gray, Aaron 11 East Valley (Redlands) 18:42
52 3536 Metcalf, Jordan 11 Aliso Niguel 18:44
53 3642 Carrera, Frank 11 California 18:44
54 3617 Horn, Chris 11 Cajon 18:49
55 4483 Huerta, Henry 11 Perris 18:49
56 4238 Mcquiston, Ben 11 Laguna Hills 18:50
57 4277 Lopez, Alberto 11 Los Angeles (L.A.) 18:50
58 4546 Dooley, Leo 11 Rancho Verde 18:51
59 5027 Chinn, Brandon 11 Westlake 18:51
60 3778 Vitalli, Nick 10 Chino 18:55
61 6323 Meza, Nelson 11 South Hills 18:57
62 4130 Vaughn, Rory 11 Foothill 19:04
63 4188 Flores, Edgar 11 La Habra 19:12
64 4009 Vera, Tony 11 East Valley (Redlands) 19:14
65 3978 Jaquez, Johnny 11 East Valley (Redlands) 19:20
66 3530 Kertzman, Axel 11 Aliso Niguel 19:22
67 4539 Castellanos, Raul 11 Rancho Verde 19:28
68 3795 Click, John 11 Claremont 19:29
69 4621 Nguyen, Cang 11 San Bernardino 19:36
70 4614 Johnson, Jonathan 11 San Bernardino 19:40
71 3738 Adame, Raul 11 Century 19:42
72 4234 Larratt, Eric 11 Laguna Hills 19:43
73 3632 Son, Rida 11 Cajon 19:45
74 3619 Jackson, Myron 11 Cajon 19:46
75 5464 Domingo, Mike 11 Etiwanda 19:51
76 4946 Burton, Tim 11 Temple City 19:52
77 3744 Penaloza, Oliver 9 Century 19:53
78 4019 Gibson, Robert 11 Elsinore 20:00
79 4613 Iqueda, Adam 11 San Bernardino 20:07
80 4616 Le, Chanh 11 San Bernardino 20:08
81 4850 Hradecky, Jonathan 11 South Torrance 20:12
82 4529 Stell, Jamil 11 Ramona (Riverside) 20:14
83 3859 Schaerrer, Sean 11 Claremont 20:14
84 4271 Bae, David 11 Los Angeles (L.A.) 20:18
85 4959 Ho, Ivan 11 Temple City 20:18
86 4458 Munday, Joey Paloma Valley 20:23
87 4461 Tolento, Anthonio Paloma Valley 20:24
88 3981 Kong, Daniel 11 East Valley (Redlands) 20:24
89 4508 Basilio, Taylor 11 Ramona (Riverside) 20:33
90 4514 Johnson, Chris 11 Ramona (Riverside) 20:34
91 5063 Lumsden, Eric 11 Westlake 20:34
92 3984 Lee, Glen 11 East Valley (Redlands) 20:39
93 4886 Rocha, Andre 11 South Torrance 20:40
94 3944 Ramirez, Gabriel 11 Dominquez Hills 20:50
95 4128 Valencia, Andy 10 Foothill 20:52
96 3986 Lipscomb, Chris 11 East Valley (Redlands) 20:55
97 3635 Alverdo, Francisco 11 California 20:59
98 5037 Doupe', Adam 11 Westlake 21:00
99 3628 Perez, Isaias 11 Cajon 21:00
100 4878 Moore, Mike 11 South Torrance 21:07
101 4848 Hence, Mike 11 South Torrance 21:12
102 3748 Renteria, Jersain 11 Century 21:19
103 3616 Hay, Justin 11 Cajon 21:20
104 3863 Snyder, Adam 11 Claremont 21:28
105 4297 Legasi, Fred 11 Miller, A.B. (Fontana) 21:41
106 4615 Juarez, Ben 11 San Bernardino 21:47
107 5473 Lee, Tim 11 Etiwanda 21:48
108 4970 Pat, David 11 Temple City 21:53
109 4454 Kraack, Brandon Paloma Valley 21:56
110 3792 Chen, Patrick 11 Claremont 21:57
111 4617 Lee, Jonathan 11 San Bernardino 22:05
112 4594 Blacksher, Michael 11 San Bernardino 22:12
113 4290 Barron, Nick 11 Miller, A.B. (Fontana) 22:38
114 3776 Tejeda, Oscar 11 Chino 22:39
115 5205 Bouaie, Alex 11 Buckley School 22:46
116 3534 Lee, Albert 11 Aliso Niguel 22:47
117 3875 Wen, Scott 11 Claremont 24:36
118 4955 Dombrowski, John 11 Temple City 24:40
119 6337 Shah, Osman 11 South Hills 24:52
120 4507 Aguillar, Jose 11 Ramona (Riverside) 25:14
121 3820 Jones, Andrew 11 Claremont 26:56
122 5390 Garcia, Raul 12 Covina 27:53
 
09/15/2001 1
 


Return to Menu